Year,Month,Day,Hour,Minute,Value (Times are PST for temperature in C)
2010,07,20,00,00,13.60
2010,07,20,00,01,13.60
2010,07,20,00,02,13.60
2010,07,20,00,03,13.60
2010,07,20,00,04,13.60
2010,07,20,00,05,13.60
2010,07,20,00,06,13.60
2010,07,20,00,07,13.60
2010,07,20,00,08,13.60
2010,07,20,00,09,13.60
2010,07,20,00,10,13.50
2010,07,20,00,11,13.50
2010,07,20,00,12,13.50
2010,07,20,00,13,13.50
2010,07,20,00,14,13.50
2010,07,20,00,15,13.50
2010,07,20,00,16,13.40
2010,07,20,00,17,13.40
2010,07,20,00,18,13.40
2010,07,20,00,19,13.40
2010,07,20,00,20,13.40
2010,07,20,00,21,13.40
2010,07,20,00,22,13.40
2010,07,20,00,23,13.40
2010,07,20,00,24,13.40
2010,07,20,00,25,13.40
2010,07,20,00,26,13.30
2010,07,20,00,27,13.30
2010,07,20,00,28,13.30
2010,07,20,00,29,13.30
2010,07,20,00,30,13.30
2010,07,20,00,31,13.30
2010,07,20,00,32,13.40
2010,07,20,00,33,13.40
2010,07,20,00,34,13.40
2010,07,20,00,35,13.40
2010,07,20,00,36,13.40
2010,07,20,00,37,13.40
2010,07,20,00,38,13.40
2010,07,20,00,39,13.40
2010,07,20,00,40,13.40
2010,07,20,00,41,13.40
2010,07,20,00,42,13.40
2010,07,20,00,43,13.40
2010,07,20,00,44,13.40
2010,07,20,00,45,13.40
2010,07,20,00,46,13.40
2010,07,20,00,47,13.30
2010,07,20,00,48,13.30
2010,07,20,00,49,13.30
2010,07,20,00,50,13.30
2010,07,20,00,51,13.30
2010,07,20,00,52,13.20
2010,07,20,00,53,13.20
2010,07,20,00,54,13.20
2010,07,20,00,55,13.20
2010,07,20,00,56,13.20
2010,07,20,00,57,13.20
2010,07,20,00,58,13.10
2010,07,20,00,59,13.10
2010,07,20,01,00,13.10
2010,07,20,01,01,13.10
2010,07,20,01,02,13.10
2010,07,20,01,03,13.10
2010,07,20,01,04,13.10
2010,07,20,01,05,13.10
2010,07,20,01,06,13.10
2010,07,20,01,07,13.10
2010,07,20,01,08,13.10
2010,07,20,01,09,13.10
2010,07,20,01,10,13.00
2010,07,20,01,11,13.00
2010,07,20,01,12,13.00
2010,07,20,01,13,13.00
2010,07,20,01,14,12.90
2010,07,20,01,15,12.90
2010,07,20,01,16,12.90
2010,07,20,01,17,12.90
2010,07,20,01,18,12.90
2010,07,20,01,19,12.90
2010,07,20,01,20,12.80
2010,07,20,01,21,12.80
2010,07,20,01,22,12.80
2010,07,20,01,23,12.80
2010,07,20,01,24,12.80
2010,07,20,01,25,12.80
2010,07,20,01,26,12.80
2010,07,20,01,27,12.80
2010,07,20,01,28,12.70
2010,07,20,01,29,12.70
2010,07,20,01,30,12.70
2010,07,20,01,31,12.70
2010,07,20,01,32,12.70
2010,07,20,01,33,12.70
2010,07,20,01,34,12.70
2010,07,20,01,35,12.70
2010,07,20,01,36,12.70
2010,07,20,01,37,12.70
2010,07,20,01,38,12.70
2010,07,20,01,39,12.70
2010,07,20,01,40,12.70
2010,07,20,01,41,12.70
2010,07,20,01,42,12.70
2010,07,20,01,43,12.70
2010,07,20,01,44,12.70
2010,07,20,01,45,12.70
2010,07,20,01,46,12.70
2010,07,20,01,47,12.70
2010,07,20,01,48,12.70
2010,07,20,01,49,12.70
2010,07,20,01,50,12.70
2010,07,20,01,51,12.70
2010,07,20,01,52,12.60
2010,07,20,01,53,12.60
2010,07,20,01,54,12.60
2010,07,20,01,55,12.60
2010,07,20,01,56,12.60
2010,07,20,01,57,12.60
2010,07,20,01,58,12.60
2010,07,20,01,59,12.60
2010,07,20,02,00,12.60
2010,07,20,02,01,12.60
2010,07,20,02,02,12.60
2010,07,20,02,03,12.60
2010,07,20,02,04,12.60
2010,07,20,02,05,12.60
2010,07,20,02,06,12.60
2010,07,20,02,07,12.60
2010,07,20,02,08,12.60
2010,07,20,02,09,12.60
2010,07,20,02,10,12.60
2010,07,20,02,11,12.60
2010,07,20,02,12,12.60
2010,07,20,02,13,12.60
2010,07,20,02,14,12.60
2010,07,20,02,15,12.60
2010,07,20,02,16,12.60
2010,07,20,02,17,12.60
2010,07,20,02,18,12.60
2010,07,20,02,19,12.60
2010,07,20,02,20,12.50
2010,07,20,02,21,12.50
2010,07,20,02,22,12.50
2010,07,20,02,23,12.50
2010,07,20,02,24,12.50
2010,07,20,02,25,12.50
2010,07,20,02,26,12.40
2010,07,20,02,27,12.40
2010,07,20,02,28,12.40
2010,07,20,02,29,12.40
2010,07,20,02,30,12.40
2010,07,20,02,31,12.40
2010,07,20,02,32,12.40
2010,07,20,02,33,12.40
2010,07,20,02,34,12.40
2010,07,20,02,35,12.40
2010,07,20,02,36,12.40
2010,07,20,02,37,12.40
2010,07,20,02,38,12.40
2010,07,20,02,39,12.40
2010,07,20,02,40,12.40
2010,07,20,02,41,12.40
2010,07,20,02,42,12.40
2010,07,20,02,43,12.40
2010,07,20,02,44,12.40
2010,07,20,02,45,12.40
2010,07,20,02,46,12.40
2010,07,20,02,47,12.50
2010,07,20,02,48,12.50
2010,07,20,02,49,12.50
2010,07,20,02,50,12.50
2010,07,20,02,51,12.50
2010,07,20,02,52,12.60
2010,07,20,02,53,12.60
2010,07,20,02,54,12.60
2010,07,20,02,55,12.50
2010,07,20,02,56,12.50
2010,07,20,02,57,12.50
2010,07,20,02,58,12.50
2010,07,20,02,59,12.50
2010,07,20,03,00,12.50
2010,07,20,03,01,12.50
2010,07,20,03,02,12.50
2010,07,20,03,03,12.50
2010,07,20,03,04,12.50
2010,07,20,03,05,12.50
2010,07,20,03,06,12.40
2010,07,20,03,07,12.40
2010,07,20,03,08,12.40
2010,07,20,03,09,12.40
2010,07,20,03,10,12.40
2010,07,20,03,11,12.40
2010,07,20,03,12,12.40
2010,07,20,03,13,12.40
2010,07,20,03,14,12.40
2010,07,20,03,15,12.40
2010,07,20,03,16,12.30
2010,07,20,03,17,12.30
2010,07,20,03,18,12.30
2010,07,20,03,19,12.30
2010,07,20,03,20,12.30
2010,07,20,03,21,12.30
2010,07,20,03,22,12.30
2010,07,20,03,23,12.30
2010,07,20,03,24,12.30
2010,07,20,03,25,12.30
2010,07,20,03,26,12.30
2010,07,20,03,27,12.30
2010,07,20,03,28,12.30
2010,07,20,03,29,12.30
2010,07,20,03,30,12.30
2010,07,20,03,31,12.30
2010,07,20,03,32,12.20
2010,07,20,03,33,12.20
2010,07,20,03,34,12.20
2010,07,20,03,35,12.20
2010,07,20,03,36,12.20
2010,07,20,03,37,12.20
2010,07,20,03,38,12.20
2010,07,20,03,39,12.20
2010,07,20,03,40,12.20
2010,07,20,03,41,12.20
2010,07,20,03,42,12.20
2010,07,20,03,43,12.20
2010,07,20,03,44,12.20
2010,07,20,03,45,12.20
2010,07,20,03,46,12.20
2010,07,20,03,47,12.20
2010,07,20,03,48,12.20
2010,07,20,03,49,12.20
2010,07,20,03,50,12.20
2010,07,20,03,51,12.20
2010,07,20,03,52,12.20
2010,07,20,03,53,12.20
2010,07,20,03,54,12.20
2010,07,20,03,55,12.20
2010,07,20,03,56,12.20
2010,07,20,03,57,12.20
2010,07,20,03,58,12.20
2010,07,20,03,59,12.20
2010,07,20,04,00,12.20
2010,07,20,04,01,12.20
2010,07,20,04,02,12.20
2010,07,20,04,03,12.20
2010,07,20,04,04,12.10
2010,07,20,04,05,12.10
2010,07,20,04,06,12.10
2010,07,20,04,07,12.10
2010,07,20,04,08,12.10
2010,07,20,04,09,12.10
2010,07,20,04,10,12.10
2010,07,20,04,11,12.10
2010,07,20,04,12,12.10
2010,07,20,04,13,12.10
2010,07,20,04,14,12.10
2010,07,20,04,15,12.10
2010,07,20,04,16,12.10
2010,07,20,04,17,12.10
2010,07,20,04,18,12.10
2010,07,20,04,19,12.10
2010,07,20,04,20,12.10
2010,07,20,04,21,12.10
2010,07,20,04,22,12.10
2010,07,20,04,23,12.10
2010,07,20,04,24,12.10
2010,07,20,04,25,12.10
2010,07,20,04,26,12.00
2010,07,20,04,27,12.00
2010,07,20,04,28,12.00
2010,07,20,04,29,12.00
2010,07,20,04,30,12.00
2010,07,20,04,31,12.00
2010,07,20,04,32,12.00
2010,07,20,04,33,12.00
2010,07,20,04,34,11.90
2010,07,20,04,35,11.90
2010,07,20,04,36,11.90
2010,07,20,04,37,11.90
2010,07,20,04,38,11.90
2010,07,20,04,39,11.90
2010,07,20,04,40,12.00
2010,07,20,04,41,12.00
2010,07,20,04,42,12.00
2010,07,20,04,43,12.00
2010,07,20,04,44,12.00
2010,07,20,04,45,12.00
2010,07,20,04,46,12.10
2010,07,20,04,47,12.10
2010,07,20,04,48,12.10
2010,07,20,04,49,12.10
2010,07,20,04,50,12.10
2010,07,20,04,51,12.10
2010,07,20,04,52,12.20
2010,07,20,04,53,12.20
2010,07,20,04,54,12.20
2010,07,20,04,55,12.20
2010,07,20,04,56,12.20
2010,07,20,04,57,12.20
2010,07,20,04,58,12.20
2010,07,20,04,59,12.10
2010,07,20,05,00,12.10
2010,07,20,05,01,12.10
2010,07,20,05,02,12.10
2010,07,20,05,03,12.10
2010,07,20,05,04,12.10
2010,07,20,05,05,12.10
2010,07,20,05,06,12.10
2010,07,20,05,07,12.10
2010,07,20,05,08,12.10
2010,07,20,05,09,12.10
2010,07,20,05,10,12.10
2010,07,20,05,11,12.10
2010,07,20,05,12,12.10
2010,07,20,05,13,12.10
2010,07,20,05,14,12.10
2010,07,20,05,15,12.10
2010,07,20,05,16,12.10
2010,07,20,05,17,12.10
2010,07,20,05,18,12.10
2010,07,20,05,19,12.10
2010,07,20,05,20,12.10
2010,07,20,05,21,12.10
2010,07,20,05,22,12.10
2010,07,20,05,23,12.10
2010,07,20,05,24,12.10
2010,07,20,05,25,12.10
2010,07,20,05,26,12.10
2010,07,20,05,27,12.10
2010,07,20,05,28,12.10
2010,07,20,05,29,12.00
2010,07,20,05,30,12.00
2010,07,20,05,31,12.00
2010,07,20,05,32,12.00
2010,07,20,05,33,11.90
2010,07,20,05,34,11.90
2010,07,20,05,35,11.90
2010,07,20,05,36,11.90
2010,07,20,05,37,11.90
2010,07,20,05,38,11.90
2010,07,20,05,39,11.80
2010,07,20,05,40,11.80
2010,07,20,05,41,11.80
2010,07,20,05,42,11.80
2010,07,20,05,43,11.80
2010,07,20,05,44,11.80
2010,07,20,05,45,11.80
2010,07,20,05,46,11.80
2010,07,20,05,47,11.80
2010,07,20,05,48,11.80
2010,07,20,05,49,11.80
2010,07,20,05,50,11.80
2010,07,20,05,51,11.80
2010,07,20,05,52,11.80
2010,07,20,05,53,11.80
2010,07,20,05,54,11.80
2010,07,20,05,55,11.80
2010,07,20,05,56,11.80
2010,07,20,05,57,11.80
2010,07,20,05,58,11.80
2010,07,20,05,59,11.80
2010,07,20,06,00,11.70
2010,07,20,06,01,11.70
2010,07,20,06,02,11.70
2010,07,20,06,03,11.70
2010,07,20,06,04,11.70
2010,07,20,06,05,11.70
2010,07,20,06,06,11.60
2010,07,20,06,07,11.60
2010,07,20,06,08,11.60
2010,07,20,06,09,11.60
2010,07,20,06,10,11.60
2010,07,20,06,11,11.60
2010,07,20,06,12,11.60
2010,07,20,06,13,11.60
2010,07,20,06,14,11.60
2010,07,20,06,15,11.60
2010,07,20,06,16,11.60
2010,07,20,06,17,11.60
2010,07,20,06,18,11.60
2010,07,20,06,19,11.60
2010,07,20,06,20,11.60
2010,07,20,06,21,11.60
2010,07,20,06,22,11.60
2010,07,20,06,23,11.60
2010,07,20,06,24,11.60
2010,07,20,06,25,11.60
2010,07,20,06,26,11.70
2010,07,20,06,27,11.70
2010,07,20,06,28,11.70
2010,07,20,06,29,11.70
2010,07,20,06,30,11.70
2010,07,20,06,31,11.70
2010,07,20,06,32,11.70
2010,07,20,06,33,11.70
2010,07,20,06,34,11.70
2010,07,20,06,35,11.60
2010,07,20,06,36,11.60
2010,07,20,06,37,11.60
2010,07,20,06,38,11.60
2010,07,20,06,39,11.60
2010,07,20,06,40,11.60
2010,07,20,06,41,11.60
2010,07,20,06,42,11.60
2010,07,20,06,43,11.60
2010,07,20,06,44,11.60
2010,07,20,06,45,11.60
2010,07,20,06,46,11.60
2010,07,20,06,47,11.60
2010,07,20,06,48,11.60
2010,07,20,06,49,11.70
2010,07,20,06,50,11.70
2010,07,20,06,51,11.70
2010,07,20,06,52,11.70
2010,07,20,06,53,11.70
2010,07,20,06,54,11.70
2010,07,20,06,55,11.70
2010,07,20,06,56,11.70
2010,07,20,06,57,11.70
2010,07,20,06,58,11.80
2010,07,20,06,59,11.80
2010,07,20,07,00,11.80
2010,07,20,07,01,11.80
2010,07,20,07,02,11.80
2010,07,20,07,03,11.80
2010,07,20,07,04,11.90
2010,07,20,07,05,11.90
2010,07,20,07,06,11.90
2010,07,20,07,07,11.90
2010,07,20,07,08,12.00
2010,07,20,07,09,12.00
2010,07,20,07,10,12.00
2010,07,20,07,11,12.00
2010,07,20,07,12,12.10
2010,07,20,07,13,12.10
2010,07,20,07,14,12.10
2010,07,20,07,15,12.10
2010,07,20,07,16,12.20
2010,07,20,07,17,12.20
2010,07,20,07,18,12.20
2010,07,20,07,19,12.20
2010,07,20,07,20,12.20
2010,07,20,07,21,12.30
2010,07,20,07,22,12.30
2010,07,20,07,23,12.30
2010,07,20,07,24,12.30
2010,07,20,07,25,12.40
2010,07,20,07,26,12.40
2010,07,20,07,27,12.50
2010,07,20,07,28,12.50
2010,07,20,07,29,12.60
2010,07,20,07,30,12.60
2010,07,20,07,31,12.60
2010,07,20,07,32,12.70
2010,07,20,07,33,12.70
2010,07,20,07,34,12.70
2010,07,20,07,35,12.80
2010,07,20,07,36,12.80
2010,07,20,07,37,12.80
2010,07,20,07,38,12.80
2010,07,20,07,39,12.80
2010,07,20,07,40,12.90
2010,07,20,07,41,12.90
2010,07,20,07,42,12.90
2010,07,20,07,43,12.90
2010,07,20,07,44,13.00
2010,07,20,07,45,13.00
2010,07,20,07,46,13.10
2010,07,20,07,47,13.10
2010,07,20,07,48,13.10
2010,07,20,07,49,13.10
2010,07,20,07,50,13.20
2010,07,20,07,51,13.20
2010,07,20,07,52,13.20
2010,07,20,07,53,13.20
2010,07,20,07,54,13.20
2010,07,20,07,55,13.20
2010,07,20,07,56,13.30
2010,07,20,07,57,13.30
2010,07,20,07,58,13.30
2010,07,20,07,59,13.30
2010,07,20,08,00,13.30
2010,07,20,08,01,13.40
2010,07,20,08,02,13.40
2010,07,20,08,03,13.40
2010,07,20,08,04,13.40
2010,07,20,08,05,13.40
2010,07,20,08,06,13.40
2010,07,20,08,07,13.40
2010,07,20,08,08,13.50
2010,07,20,08,09,13.50
2010,07,20,08,10,13.50
2010,07,20,08,11,13.50
2010,07,20,08,12,13.60
2010,07,20,08,13,13.60
2010,07,20,08,14,13.60
2010,07,20,08,15,13.70
2010,07,20,08,16,13.70
2010,07,20,08,17,13.70
2010,07,20,08,18,13.70
2010,07,20,08,19,13.70
2010,07,20,08,20,13.80
2010,07,20,08,21,13.80
2010,07,20,08,22,13.80
2010,07,20,08,23,13.80
2010,07,20,08,24,13.90
2010,07,20,08,25,13.90
2010,07,20,08,26,13.90
2010,07,20,08,27,13.90
2010,07,20,08,28,13.90
2010,07,20,08,29,14.00
2010,07,20,08,30,14.00
2010,07,20,08,31,14.00
2010,07,20,08,32,14.10
2010,07,20,08,33,14.10
2010,07,20,08,34,14.20
2010,07,20,08,35,14.20
2010,07,20,08,36,14.30
2010,07,20,08,37,14.30
2010,07,20,08,38,14.40
2010,07,20,08,39,14.50
2010,07,20,08,40,14.70
2010,07,20,08,41,14.80
2010,07,20,08,42,15.00
2010,07,20,08,43,15.00
2010,07,20,08,44,15.20
2010,07,20,08,45,15.40
2010,07,20,08,46,15.60
2010,07,20,08,47,15.70
2010,07,20,08,48,15.80
2010,07,20,08,49,15.80
2010,07,20,08,50,15.80
2010,07,20,08,51,15.80
2010,07,20,08,52,15.70
2010,07,20,08,53,15.70
2010,07,20,08,54,15.80
2010,07,20,08,55,15.80
2010,07,20,08,56,15.90
2010,07,20,08,57,16.00
2010,07,20,08,58,16.10
2010,07,20,08,59,16.10
2010,07,20,09,00,16.20
2010,07,20,09,01,16.30
2010,07,20,09,02,16.30
2010,07,20,09,03,16.40
2010,07,20,09,04,16.50
2010,07,20,09,05,16.60
2010,07,20,09,06,16.60
2010,07,20,09,07,16.60
2010,07,20,09,08,16.60
2010,07,20,09,09,16.60
2010,07,20,09,10,16.60
2010,07,20,09,11,16.60
2010,07,20,09,12,16.60
2010,07,20,09,13,16.60
2010,07,20,09,14,16.60
2010,07,20,09,15,16.70
2010,07,20,09,16,16.70
2010,07,20,09,17,16.70
2010,07,20,09,18,16.60
2010,07,20,09,19,16.60
2010,07,20,09,20,16.50
2010,07,20,09,21,16.50
2010,07,20,09,22,16.50
2010,07,20,09,23,16.50
2010,07,20,09,24,16.60
2010,07,20,09,25,16.50
2010,07,20,09,26,16.60
2010,07,20,09,27,16.60
2010,07,20,09,28,16.60
2010,07,20,09,29,16.60
2010,07,20,09,30,16.60
2010,07,20,09,31,16.70
2010,07,20,09,32,16.70
2010,07,20,09,33,16.80
2010,07,20,09,34,16.80
2010,07,20,09,35,16.90
2010,07,20,09,36,16.90
2010,07,20,09,37,17.00
2010,07,20,09,38,17.00
2010,07,20,09,39,17.10
2010,07,20,09,40,17.10
2010,07,20,09,41,17.10
2010,07,20,09,42,17.20
2010,07,20,09,43,17.20
2010,07,20,09,44,17.30
2010,07,20,09,45,17.30
2010,07,20,09,46,17.30
2010,07,20,09,47,17.30
2010,07,20,09,48,17.40
2010,07,20,09,49,17.40
2010,07,20,09,50,17.40
2010,07,20,09,51,17.40
2010,07,20,09,52,17.40
2010,07,20,09,53,17.40
2010,07,20,09,54,17.30
2010,07,20,09,55,17.30
2010,07,20,09,56,17.30
2010,07,20,09,57,17.30
2010,07,20,09,58,17.30
2010,07,20,09,59,17.30
2010,07,20,10,00,17.30
2010,07,20,10,01,17.30
2010,07,20,10,02,17.30
2010,07,20,10,03,17.30
2010,07,20,10,04,17.30
2010,07,20,10,05,17.30
2010,07,20,10,06,17.30
2010,07,20,10,07,17.30
2010,07,20,10,08,17.30
2010,07,20,10,09,17.30
2010,07,20,10,10,17.30
2010,07,20,10,11,17.20
2010,07,20,10,12,17.00
2010,07,20,10,13,16.90
2010,07,20,10,14,16.90
2010,07,20,10,15,16.70
2010,07,20,10,16,16.60
2010,07,20,10,17,16.50
2010,07,20,10,18,16.40
2010,07,20,10,19,16.30
2010,07,20,10,20,16.30
2010,07,20,10,21,16.30
2010,07,20,10,22,16.20
2010,07,20,10,23,16.20
2010,07,20,10,24,16.30
2010,07,20,10,25,16.30
2010,07,20,10,26,16.30
2010,07,20,10,27,16.30
2010,07,20,10,28,16.30
2010,07,20,10,29,16.30
2010,07,20,10,30,16.30
2010,07,20,10,31,16.30
2010,07,20,10,32,16.30
2010,07,20,10,33,16.40
2010,07,20,10,34,16.50
2010,07,20,10,35,16.60
2010,07,20,10,36,16.70
2010,07,20,10,37,16.90
2010,07,20,10,38,17.10
2010,07,20,10,39,17.30
2010,07,20,10,40,17.50
2010,07,20,10,41,17.70
2010,07,20,10,42,17.80
2010,07,20,10,43,17.90
2010,07,20,10,44,18.00
2010,07,20,10,45,18.10
2010,07,20,10,46,18.20
2010,07,20,10,47,18.30
2010,07,20,10,48,18.40
2010,07,20,10,49,18.60
2010,07,20,10,50,18.60
2010,07,20,10,51,18.60
2010,07,20,10,52,18.60
2010,07,20,10,53,18.60
2010,07,20,10,54,18.60
2010,07,20,10,55,18.60
2010,07,20,10,56,18.60
2010,07,20,10,57,18.70
2010,07,20,10,58,18.80
2010,07,20,10,59,18.90
2010,07,20,11,00,19.00
2010,07,20,11,01,19.10
2010,07,20,11,02,19.10
2010,07,20,11,03,19.20
2010,07,20,11,04,19.20
2010,07,20,11,05,19.20
2010,07,20,11,06,19.30
2010,07,20,11,07,19.30
2010,07,20,11,08,19.40
2010,07,20,11,09,19.40
2010,07,20,11,10,19.50
2010,07,20,11,11,19.50
2010,07,20,11,12,19.40
2010,07,20,11,13,19.30
2010,07,20,11,14,19.30
2010,07,20,11,15,19.30
2010,07,20,11,16,19.30
2010,07,20,11,17,19.30
2010,07,20,11,18,19.30
2010,07,20,11,19,19.30
2010,07,20,11,20,19.30
2010,07,20,11,21,19.20
2010,07,20,11,22,19.20
2010,07,20,11,23,19.10
2010,07,20,11,24,19.00
2010,07,20,11,25,18.90
2010,07,20,11,26,18.90
2010,07,20,11,27,18.90
2010,07,20,11,28,18.90
2010,07,20,11,29,18.90
2010,07,20,11,30,18.90
2010,07,20,11,31,18.90
2010,07,20,11,32,19.00
2010,07,20,11,33,19.10
2010,07,20,11,34,19.10
2010,07,20,11,35,19.10
2010,07,20,11,36,19.10
2010,07,20,11,37,19.10
2010,07,20,11,38,19.10
2010,07,20,11,39,19.20
2010,07,20,11,40,19.20
2010,07,20,11,41,19.20
2010,07,20,11,42,19.30
2010,07,20,11,43,19.30
2010,07,20,11,44,19.30
2010,07,20,11,45,19.20
2010,07,20,11,46,19.10
2010,07,20,11,47,18.90
2010,07,20,11,48,18.80
2010,07,20,11,49,18.60
2010,07,20,11,50,18.40
2010,07,20,11,51,18.30
2010,07,20,11,52,18.20
2010,07,20,11,53,18.10
2010,07,20,11,54,17.90
2010,07,20,11,55,17.80
2010,07,20,11,56,17.80
2010,07,20,11,57,17.80
2010,07,20,11,58,17.70
2010,07,20,11,59,17.60
2010,07,20,12,00,17.60
2010,07,20,12,01,17.50
2010,07,20,12,02,17.50
2010,07,20,12,03,17.30
2010,07,20,12,04,17.30
2010,07,20,12,05,17.20
2010,07,20,12,06,17.10
2010,07,20,12,07,17.00
2010,07,20,12,08,17.00
2010,07,20,12,09,16.90
2010,07,20,12,10,16.80
2010,07,20,12,11,16.80
2010,07,20,12,12,16.70
2010,07,20,12,13,16.70
2010,07,20,12,14,16.60
2010,07,20,12,15,16.60
2010,07,20,12,16,16.60
2010,07,20,12,17,16.70
2010,07,20,12,18,16.70
2010,07,20,12,19,16.70
2010,07,20,12,20,16.80
2010,07,20,12,21,16.90
2010,07,20,12,22,16.90
2010,07,20,12,23,17.00
2010,07,20,12,24,17.00
2010,07,20,12,25,16.90
2010,07,20,12,26,17.00
2010,07,20,12,27,17.00
2010,07,20,12,28,17.10
2010,07,20,12,29,17.20
2010,07,20,12,30,17.40
2010,07,20,12,31,17.50
2010,07,20,12,32,17.60
2010,07,20,12,33,17.70
2010,07,20,12,34,17.80
2010,07,20,12,35,17.80
2010,07,20,12,36,17.90
2010,07,20,12,37,18.00
2010,07,20,12,38,18.00
2010,07,20,12,39,18.00
2010,07,20,12,40,18.00
2010,07,20,12,41,18.00
2010,07,20,12,42,17.90
2010,07,20,12,43,17.90
2010,07,20,12,44,17.90
2010,07,20,12,45,18.00
2010,07,20,12,46,18.10
2010,07,20,12,47,18.10
2010,07,20,12,48,18.10
2010,07,20,12,49,18.10
2010,07,20,12,50,18.20
2010,07,20,12,51,18.20
2010,07,20,12,52,18.20
2010,07,20,12,53,18.30
2010,07,20,12,54,18.30
2010,07,20,12,55,18.30
2010,07,20,12,56,18.30
2010,07,20,12,57,18.30
2010,07,20,12,58,18.20
2010,07,20,12,59,18.20
2010,07,20,13,00,18.30
2010,07,20,13,01,18.30
2010,07,20,13,02,18.30
2010,07,20,13,03,18.30
2010,07,20,13,04,18.30
2010,07,20,13,05,18.30
2010,07,20,13,06,18.30
2010,07,20,13,07,18.30
2010,07,20,13,08,18.40
2010,07,20,13,09,18.40
2010,07,20,13,10,18.40
2010,07,20,13,11,18.30
2010,07,20,13,12,18.30
2010,07,20,13,13,18.20
2010,07,20,13,14,18.20
2010,07,20,13,15,18.20
2010,07,20,13,16,18.10
2010,07,20,13,17,18.00
2010,07,20,13,18,18.00
2010,07,20,13,19,18.00
2010,07,20,13,20,18.10
2010,07,20,13,21,18.20
2010,07,20,13,22,18.20
2010,07,20,13,23,18.20
2010,07,20,13,24,18.30
2010,07,20,13,25,18.30
2010,07,20,13,26,18.30
2010,07,20,13,27,18.30
2010,07,20,13,28,18.50
2010,07,20,13,29,18.60
2010,07,20,13,30,18.70
2010,07,20,13,31,18.90
2010,07,20,13,32,18.90
2010,07,20,13,33,18.80
2010,07,20,13,34,18.80
2010,07,20,13,35,18.80
2010,07,20,13,36,18.70
2010,07,20,13,37,18.60
2010,07,20,13,38,18.70
2010,07,20,13,39,18.70
2010,07,20,13,40,18.80
2010,07,20,13,41,18.90
2010,07,20,13,42,19.00
2010,07,20,13,43,19.10
2010,07,20,13,44,19.30
2010,07,20,13,45,19.20
2010,07,20,13,46,19.20
2010,07,20,13,47,19.20
2010,07,20,13,48,19.20
2010,07,20,13,49,19.10
2010,07,20,13,50,19.00
2010,07,20,13,51,19.00
2010,07,20,13,52,18.90
2010,07,20,13,53,18.90
2010,07,20,13,54,18.90
2010,07,20,13,55,18.80
2010,07,20,13,56,18.70
2010,07,20,13,57,18.70
2010,07,20,13,58,18.70
2010,07,20,13,59,18.70
2010,07,20,14,00,18.80
2010,07,20,14,01,18.80
2010,07,20,14,02,18.80
2010,07,20,14,03,18.90
2010,07,20,14,04,18.90
2010,07,20,14,05,18.90
2010,07,20,14,06,18.90
2010,07,20,14,07,18.90
2010,07,20,14,08,18.90
2010,07,20,14,09,18.90
2010,07,20,14,10,18.90
2010,07,20,14,11,18.90
2010,07,20,14,12,19.00
2010,07,20,14,13,19.10
2010,07,20,14,14,19.20
2010,07,20,14,15,19.20
2010,07,20,14,16,19.10
2010,07,20,14,17,19.20
2010,07,20,14,18,19.20
2010,07,20,14,19,19.20
2010,07,20,14,20,19.20
2010,07,20,14,21,19.20
2010,07,20,14,22,19.20
2010,07,20,14,23,19.30
2010,07,20,14,24,19.30
2010,07,20,14,25,19.30
2010,07,20,14,26,19.20
2010,07,20,14,27,19.20
2010,07,20,14,28,19.20
2010,07,20,14,29,19.20
2010,07,20,14,30,19.30
2010,07,20,14,31,19.30
2010,07,20,14,32,19.30
2010,07,20,14,33,19.40
2010,07,20,14,34,19.40
2010,07,20,14,35,19.40
2010,07,20,14,36,19.30
2010,07,20,14,37,19.30
2010,07,20,14,38,19.40
2010,07,20,14,39,19.40
2010,07,20,14,40,19.40
2010,07,20,14,41,19.40
2010,07,20,14,42,19.50
2010,07,20,14,43,19.50
2010,07,20,14,44,19.70
2010,07,20,14,45,19.80
2010,07,20,14,46,19.90
2010,07,20,14,47,20.00
2010,07,20,14,48,20.10
2010,07,20,14,49,20.10
2010,07,20,14,50,20.20
2010,07,20,14,51,20.20
2010,07,20,14,52,20.20
2010,07,20,14,53,20.10
2010,07,20,14,54,20.20
2010,07,20,14,55,20.20
2010,07,20,14,56,20.20
2010,07,20,14,57,20.20
2010,07,20,14,58,20.20
2010,07,20,14,59,20.30
2010,07,20,15,00,20.30
2010,07,20,15,01,20.40
2010,07,20,15,02,20.30
2010,07,20,15,03,20.40
2010,07,20,15,04,20.50
2010,07,20,15,05,20.60
2010,07,20,15,06,20.50
2010,07,20,15,07,20.40
2010,07,20,15,08,20.50
2010,07,20,15,09,20.60
2010,07,20,15,10,20.70
2010,07,20,15,11,20.70
2010,07,20,15,12,20.60
2010,07,20,15,13,20.50
2010,07,20,15,14,20.40
2010,07,20,15,15,20.20
2010,07,20,15,16,20.00
2010,07,20,15,17,19.90
2010,07,20,15,18,19.90
2010,07,20,15,19,19.80
2010,07,20,15,20,19.70
2010,07,20,15,21,19.80
2010,07,20,15,22,19.80
2010,07,20,15,23,19.70
2010,07,20,15,24,19.80
2010,07,20,15,25,19.80
2010,07,20,15,26,19.80
2010,07,20,15,27,19.90
2010,07,20,15,28,20.00
2010,07,20,15,29,20.10
2010,07,20,15,30,20.10
2010,07,20,15,31,20.10
2010,07,20,15,32,20.00
2010,07,20,15,33,20.00
2010,07,20,15,34,20.10
2010,07,20,15,35,20.20
2010,07,20,15,36,20.20
2010,07,20,15,37,20.20
2010,07,20,15,38,20.20
2010,07,20,15,39,20.20
2010,07,20,15,40,20.30
2010,07,20,15,41,20.30
2010,07,20,15,42,20.40
2010,07,20,15,43,20.40
2010,07,20,15,44,20.40
2010,07,20,15,45,20.40
2010,07,20,15,46,20.30
2010,07,20,15,47,20.20
2010,07,20,15,48,20.20
2010,07,20,15,49,20.20
2010,07,20,15,50,20.20
2010,07,20,15,51,20.30
2010,07,20,15,52,20.30
2010,07,20,15,53,20.20
2010,07,20,15,54,20.20
2010,07,20,15,55,20.20
2010,07,20,15,56,20.20
2010,07,20,15,57,20.30
2010,07,20,15,58,20.40
2010,07,20,15,59,20.40
2010,07,20,16,00,20.30
2010,07,20,16,01,20.30
2010,07,20,16,02,20.20
2010,07,20,16,03,20.10
2010,07,20,16,04,20.10
2010,07,20,16,05,20.10
2010,07,20,16,06,20.00
2010,07,20,16,07,20.10
2010,07,20,16,08,20.10
2010,07,20,16,09,20.20
2010,07,20,16,10,20.20
2010,07,20,16,11,20.30
2010,07,20,16,12,20.30
2010,07,20,16,13,20.30
2010,07,20,16,14,20.30
2010,07,20,16,15,20.30
2010,07,20,16,16,20.30
2010,07,20,16,17,20.20
2010,07,20,16,18,20.20
2010,07,20,16,19,20.20
2010,07,20,16,20,20.20
2010,07,20,16,21,20.30
2010,07,20,16,22,20.30
2010,07,20,16,23,20.30
2010,07,20,16,24,20.30
2010,07,20,16,25,20.30
2010,07,20,16,26,20.40
2010,07,20,16,27,20.40
2010,07,20,16,28,20.40
2010,07,20,16,29,20.50
2010,07,20,16,30,20.50
2010,07,20,16,31,20.60
2010,07,20,16,32,20.70
2010,07,20,16,33,20.70
2010,07,20,16,34,20.70
2010,07,20,16,35,20.70
2010,07,20,16,36,20.70
2010,07,20,16,37,20.80
2010,07,20,16,38,20.80
2010,07,20,16,39,20.90
2010,07,20,16,40,20.90
2010,07,20,16,41,20.90
2010,07,20,16,42,20.90
2010,07,20,16,43,20.90
2010,07,20,16,44,20.90
2010,07,20,16,45,20.90
2010,07,20,16,46,20.90
2010,07,20,16,47,20.90
2010,07,20,16,48,20.80
2010,07,20,16,49,20.80
2010,07,20,16,50,20.80
2010,07,20,16,51,20.70
2010,07,20,16,52,20.80
2010,07,20,16,53,20.80
2010,07,20,16,54,20.80
2010,07,20,16,55,20.90
2010,07,20,16,56,21.00
2010,07,20,16,57,21.00
2010,07,20,16,58,21.00
2010,07,20,16,59,21.10
2010,07,20,17,00,21.10
2010,07,20,17,01,21.00
2010,07,20,17,02,20.90
2010,07,20,17,03,20.90
2010,07,20,17,04,20.90
2010,07,20,17,05,20.90
2010,07,20,17,06,20.90
2010,07,20,17,07,20.90
2010,07,20,17,08,20.90
2010,07,20,17,09,21.00
2010,07,20,17,10,21.20
2010,07,20,17,11,21.20
2010,07,20,17,12,21.20
2010,07,20,17,13,21.10
2010,07,20,17,14,21.20
2010,07,20,17,15,21.20
2010,07,20,17,16,21.20
2010,07,20,17,17,21.20
2010,07,20,17,18,21.20
2010,07,20,17,19,21.20